VXP8418 KGSP-KPHL

Flight info

Callsign VXP8418
Flight time 1h 10m
Altitude 41000
Route BIMMR3 DRIVN KIDDO Q22 BEARI BBDOL PAATS4
Aircraft B737/M-SDE2E3FGHIRWXY/LB1

Departure

Time 2026-04-26 20:18
Airport Greenville-Spartanburg International Airport (KGSP)

Arrival

Time 2026-04-26 21:28
Airport Philadelphia International Airport (KPHL)
Time Latitude Longitude Altitude Speed Heading
2026-04-26 20:04 34.88936 -82.21781 956 ft 0 kts 319°
2026-04-26 20:10 34.88922 -82.21767 955 ft 4 kts 336°
2026-04-26 20:10 34.88901 -82.21761 959 ft 4 kts 358°
2026-04-26 20:10 34.88876 -82.21766 955 ft 4 kts 31°
2026-04-26 20:11 34.88855 -82.21783 958 ft 2 kts 33°
2026-04-26 20:11 34.88837 -82.21801 959 ft 4 kts 51°
2026-04-26 20:11 34.88822 -82.21828 957 ft 4 kts 52°
2026-04-26 20:12 34.88815 -82.21838 959 ft 0 kts 32°
2026-04-26 20:13 34.88828 -82.21841 959 ft 4 kts 328°
2026-04-26 20:13 34.88846 -82.21905 959 ft 13 kts 307°
2026-04-26 20:13 34.88939 -82.21985 957 ft 19 kts 341°
2026-04-26 20:14 34.89005 -82.22067 956 ft 14 kts 246°
2026-04-26 20:14 34.88926 -82.22140 957 ft 16 kts 212°
2026-04-26 20:14 34.88818 -82.22222 958 ft 20 kts 212°
2026-04-26 20:14 34.88693 -82.22319 959 ft 22 kts 212°
2026-04-26 20:15 34.88567 -82.22415 959 ft 21 kts 212°
2026-04-26 20:15 34.88446 -82.22507 957 ft 20 kts 212°
2026-04-26 20:15 34.88328 -82.22597 958 ft 20 kts 212°
2026-04-26 20:15 34.88227 -82.22695 957 ft 18 kts 255°
2026-04-26 20:16 34.88262 -82.22787 957 ft 10 kts 303°
2026-04-26 20:16 34.88301 -82.22850 957 ft 6 kts 332°
2026-04-26 20:16 34.88315 -82.22844 957 ft 2 kts 31°
2026-04-26 20:16 34.88320 -82.22840 960 ft 0 kts 31°
2026-04-26 20:17 34.88326 -82.22835 959 ft 7 kts 31°
2026-04-26 20:17 34.88435 -82.22752 961 ft 54 kts 32°
2026-04-26 20:18 34.89235 -82.22144 1047 ft 133 kts 32°
2026-04-26 20:18 34.90066 -82.21553 1597 ft 145 kts 31°
2026-04-26 20:18 34.90960 -82.20906 2217 ft 158 kts 38°
2026-04-26 20:18 34.91691 -82.19770 2554 ft 189 kts 66°
2026-04-26 20:19 34.91921 -82.18041 2852 ft 233 kts 97°
2026-04-26 20:19 34.91230 -82.16109 3378 ft 263 kts 126°
2026-04-26 20:19 34.90034 -82.14379 4510 ft 270 kts 130°
2026-04-26 20:19 34.88787 -82.12658 5728 ft 272 kts 130°
2026-04-26 20:20 34.87523 -82.10910 6931 ft 278 kts 130°
2026-04-26 20:20 34.86239 -82.09123 8159 ft 283 kts 129°
2026-04-26 20:20 34.84938 -82.07294 9327 ft 290 kts 129°
2026-04-26 20:20 34.83610 -82.05419 10490 ft 298 kts 129°
2026-04-26 20:21 34.82192 -82.03420 11067 ft 328 kts 129°
2026-04-26 20:21 34.80644 -82.01229 11654 ft 350 kts 129°
2026-04-26 20:21 34.79040 -81.98958 12694 ft 357 kts 129°
2026-04-26 20:21 34.77409 -81.96649 13779 ft 363 kts 129°
2026-04-26 20:22 34.75861 -81.94178 14735 ft 372 kts 121°
2026-04-26 20:22 34.74522 -81.91438 15738 ft 381 kts 116°
2026-04-26 20:22 34.73761 -81.88359 16713 ft 385 kts 92°
2026-04-26 20:22 34.73978 -81.85118 17716 ft 388 kts 74°
2026-04-26 20:23 34.75002 -81.82084 18670 ft 390 kts 57°
2026-04-26 20:23 34.76413 -81.79240 19600 ft 396 kts 55°
2026-04-26 20:23 34.77898 -81.76377 20441 ft 404 kts 54°
2026-04-26 20:23 34.79390 -81.73494 21271 ft 411 kts 54°
2026-04-26 20:24 34.80910 -81.70513 22092 ft 418 kts 55°
2026-04-26 20:24 34.82436 -81.67472 22860 ft 425 kts 55°
2026-04-26 20:24 34.83977 -81.64376 23577 ft 432 kts 55°
2026-04-26 20:24 34.85544 -81.61222 24268 ft 439 kts 55°
2026-04-26 20:25 34.87143 -81.58031 24971 ft 444 kts 54°
2026-04-26 20:25 34.88239 -81.55864 25463 ft 447 kts 54°
2026-04-26 20:25 34.90416 -81.51578 26395 ft 452 kts 54°
2026-04-26 20:25 34.92080 -81.48299 27031 ft 457 kts 54°
2026-04-26 20:26 34.93755 -81.44990 27650 ft 461 kts 54°
2026-04-26 20:26 34.95444 -81.41646 28247 ft 465 kts 54°
2026-04-26 20:26 34.97145 -81.38274 28817 ft 469 kts 54°
2026-04-26 20:26 34.98860 -81.34868 29369 ft 473 kts 54°
2026-04-26 20:27 35.00586 -81.31437 29908 ft 476 kts 54°
2026-04-26 20:27 35.02322 -81.27980 30428 ft 479 kts 54°
2026-04-26 20:27 35.04069 -81.24502 30867 ft 483 kts 54°
2026-04-26 20:27 35.05828 -81.20992 31296 ft 486 kts 54°
2026-04-26 20:28 35.07597 -81.17461 31722 ft 489 kts 54°
2026-04-26 20:28 35.09377 -81.13904 32118 ft 492 kts 54°
2026-04-26 20:28 35.11161 -81.10337 32579 ft 491 kts 54°
2026-04-26 20:28 35.12938 -81.06779 33093 ft 490 kts 54°
2026-04-26 20:29 35.14709 -81.03233 33598 ft 489 kts 54°
2026-04-26 20:29 35.16478 -80.99686 34077 ft 488 kts 54°
2026-04-26 20:29 35.18244 -80.96146 34513 ft 488 kts 54°
2026-04-26 20:29 35.20008 -80.92605 34948 ft 488 kts 54°
2026-04-26 20:30 35.21968 -80.89261 35365 ft 479 kts 41°
2026-04-26 20:30 35.24502 -80.86704 35781 ft 469 kts 30°
2026-04-26 20:30 35.27129 -80.84440 36179 ft 468 kts 29°
2026-04-26 20:30 35.29802 -80.82163 36517 ft 469 kts 29°
2026-04-26 20:31 35.32477 -80.79877 36878 ft 469 kts 30°
2026-04-26 20:31 35.35166 -80.77551 37364 ft 464 kts 30°
2026-04-26 20:31 35.37777 -80.75272 37910 ft 459 kts 30°
2026-04-26 20:31 35.40334 -80.73027 38313 ft 458 kts 30°
2026-04-26 20:32 35.42922 -80.70748 38571 ft 460 kts 30°
2026-04-26 20:32 35.45527 -80.68449 38816 ft 461 kts 30°
2026-04-26 20:32 35.48165 -80.66118 39148 ft 461 kts 30°
2026-04-26 20:32 35.50731 -80.63847 39429 ft 462 kts 30°
2026-04-26 20:33 35.53340 -80.61537 39657 ft 464 kts 30°
2026-04-26 20:33 35.55956 -80.59217 39919 ft 464 kts 30°
2026-04-26 20:33 35.58577 -80.56891 40175 ft 465 kts 30°
2026-04-26 20:33 35.61198 -80.54563 40402 ft 466 kts 30°
2026-04-26 20:34 35.63829 -80.52224 40637 ft 467 kts 30°
2026-04-26 20:34 35.66465 -80.49880 40882 ft 468 kts 31°
2026-04-26 20:34 35.69103 -80.47531 41054 ft 470 kts 31°
2026-04-26 20:35 35.74435 -80.42779 41046 ft 472 kts 31°
2026-04-26 20:35 35.79731 -80.38047 41055 ft 469 kts 31°
2026-04-26 20:36 35.84998 -80.33335 41063 ft 467 kts 31°
2026-04-26 20:36 35.90250 -80.28631 41065 ft 466 kts 31°
2026-04-26 20:37 35.95489 -80.23931 41074 ft 466 kts 31°
2026-04-26 20:37 36.00731 -80.19220 41077 ft 466 kts 31°
2026-04-26 20:38 36.05982 -80.14493 41086 ft 468 kts 31°
2026-04-26 20:38 36.11248 -80.09743 41083 ft 470 kts 31°
2026-04-26 20:39 36.16503 -80.04905 41079 ft 474 kts 36°
2026-04-26 20:39 36.20915 -79.98742 41088 ft 483 kts 50°
2026-04-26 20:40 36.24829 -79.91966 41092 ft 484 kts 51°
2026-04-26 20:40 36.28737 -79.85169 41093 ft 484 kts 50°
2026-04-26 20:41 36.32686 -79.78398 41107 ft 484 kts 50°
2026-04-26 20:41 36.36624 -79.71687 41105 ft 484 kts 50°
2026-04-26 20:42 36.40581 -79.64937 41098 ft 484 kts 50°
2026-04-26 20:42 36.44533 -79.58176 41098 ft 483 kts 50°
2026-04-26 20:43 36.48474 -79.51419 41103 ft 483 kts 50°
2026-04-26 20:43 36.52417 -79.44645 41102 ft 483 kts 50°
2026-04-26 20:44 36.56352 -79.37870 41100 ft 483 kts 50°
2026-04-26 20:44 36.60281 -79.31092 41102 ft 483 kts 51°
2026-04-26 20:45 36.64205 -79.24309 41098 ft 483 kts 51°
2026-04-26 20:45 36.68121 -79.17526 41110 ft 482 kts 51°
2026-04-26 20:46 36.71376 -79.11878 41112 ft 482 kts 51°
2026-04-26 20:46 36.75286 -79.05081 41126 ft 483 kts 51°
2026-04-26 20:47 36.79192 -78.98276 41106 ft 483 kts 51°
2026-04-26 20:47 36.83100 -78.91456 41126 ft 483 kts 51°
2026-04-26 20:48 36.86990 -78.84614 41121 ft 484 kts 51°
2026-04-26 20:48 36.90873 -78.77752 41127 ft 484 kts 52°
2026-04-26 20:49 36.94754 -78.70883 41132 ft 484 kts 52°
2026-04-26 20:49 36.98633 -78.64008 41128 ft 484 kts 52°
2026-04-26 20:50 37.02512 -78.57119 41130 ft 484 kts 52°
2026-04-26 20:50 37.06386 -78.50224 41130 ft 484 kts 52°
2026-04-26 20:51 37.10259 -78.43318 41129 ft 484 kts 52°
2026-04-26 20:51 37.14125 -78.36409 41135 ft 484 kts 52°
2026-04-26 20:52 37.17989 -78.29491 41139 ft 484 kts 52°
2026-04-26 20:52 37.22464 -78.23292 41130 ft 477 kts 34°
2026-04-26 20:53 37.27773 -78.18342 41139 ft 475 kts 32°
2026-04-26 20:53 37.33123 -78.13454 41136 ft 476 kts 33°
2026-04-26 20:54 37.38447 -78.08493 41139 ft 477 kts 33°
2026-04-26 20:54 37.43753 -78.03493 41138 ft 477 kts 33°
2026-04-26 20:55 37.49055 -77.98481 41143 ft 477 kts 33°
2026-04-26 20:55 37.54327 -77.93494 41147 ft 477 kts 33°
2026-04-26 20:56 37.59639 -77.88462 41158 ft 478 kts 33°
2026-04-26 20:56 37.64952 -77.83421 41158 ft 478 kts 33°
2026-04-26 20:57 37.70275 -77.78376 41159 ft 479 kts 33°
2026-04-26 20:57 37.75600 -77.73320 41159 ft 479 kts 33°
2026-04-26 20:58 37.80926 -77.68254 41170 ft 479 kts 34°
2026-04-26 20:58 37.86236 -77.63170 41163 ft 479 kts 34°
2026-04-26 20:59 37.91540 -77.58073 41167 ft 479 kts 34°
2026-04-26 20:59 37.96846 -77.52966 41165 ft 479 kts 34°
2026-04-26 21:00 38.02145 -77.47859 41165 ft 479 kts 34°
2026-04-26 21:00 38.07450 -77.42749 41165 ft 478 kts 33°
2026-04-26 21:01 38.12924 -77.37988 41166 ft 477 kts 30°
2026-04-26 21:01 38.18480 -77.33385 41157 ft 477 kts 30°
2026-04-26 21:02 38.24015 -77.28734 41155 ft 477 kts 30°
2026-04-26 21:02 38.29535 -77.24039 41159 ft 477 kts 30°
2026-04-26 21:03 38.35019 -77.19364 41166 ft 477 kts 30°
2026-04-26 21:03 38.40344 -77.14282 41158 ft 482 kts 41°
2026-04-26 21:04 38.45037 -77.08148 41168 ft 484 kts 44°
2026-04-26 21:04 38.49681 -77.01930 41178 ft 484 kts 43°
2026-04-26 21:05 38.54365 -76.95763 41166 ft 484 kts 43°
2026-04-26 21:05 38.59074 -76.89603 41155 ft 484 kts 43°
2026-04-26 21:06 38.63781 -76.83432 41167 ft 484 kts 43°
2026-04-26 21:06 38.68374 -76.77129 41154 ft 487 kts 51°
2026-04-26 21:07 38.71663 -76.69525 41165 ft 491 kts 69°
2026-04-26 21:07 38.73513 -76.61095 41165 ft 493 kts 75°
2026-04-26 21:08 38.75181 -76.52586 41165 ft 493 kts 75°
2026-04-26 21:08 38.76902 -76.44081 41170 ft 493 kts 75°
2026-04-26 21:09 38.78658 -76.35588 41173 ft 493 kts 74°
2026-04-26 21:09 38.80414 -76.27096 41176 ft 493 kts 75°
2026-04-26 21:10 38.82163 -76.18583 41178 ft 493 kts 75°
2026-04-26 21:10 38.83904 -76.10071 41173 ft 493 kts 75°
2026-04-26 21:11 38.85638 -76.01560 41174 ft 493 kts 75°
2026-04-26 21:11 38.87356 -75.93047 41170 ft 493 kts 75°
2026-04-26 21:11 38.88301 -75.88784 40618 ft 500 kts 68°
2026-04-26 21:12 38.89844 -75.84814 39953 ft 495 kts 55°
2026-04-26 21:12 38.91933 -75.81340 39234 ft 489 kts 43°
2026-04-26 21:12 38.94444 -75.78528 38490 ft 483 kts 32°
2026-04-26 21:12 38.97193 -75.76073 37713 ft 481 kts 31°
2026-04-26 21:13 38.99930 -75.73620 36894 ft 476 kts 32°
2026-04-26 21:13 39.02612 -75.71171 35767 ft 470 kts 30°
2026-04-26 21:13 39.05455 -75.69160 34393 ft 465 kts 19°
2026-04-26 21:13 39.08480 -75.67756 33020 ft 459 kts 11°
2026-04-26 21:14 39.11590 -75.67013 31662 ft 450 kts
2026-04-26 21:14 39.14689 -75.66713 30351 ft 444 kts 359°
2026-04-26 21:14 39.17742 -75.66474 29045 ft 436 kts 360°
2026-04-26 21:14 39.20735 -75.66198 27778 ft 426 kts
2026-04-26 21:15 39.23677 -75.65890 26054 ft 425 kts
2026-04-26 21:15 39.26611 -75.65259 24064 ft 430 kts 11°
2026-04-26 21:15 39.29438 -75.64030 22102 ft 427 kts 19°
2026-04-26 21:15 39.32074 -75.62313 20110 ft 423 kts 28°
2026-04-26 21:16 39.34489 -75.60202 18168 ft 415 kts 31°
2026-04-26 21:16 39.36884 -75.58245 16626 ft 395 kts 24°
2026-04-26 21:16 39.39322 -75.56939 15565 ft 366 kts 16°
2026-04-26 21:16 39.41763 -75.56064 13680 ft 363 kts
2026-04-26 21:17 39.44262 -75.55649 11791 ft 361 kts
2026-04-26 21:17 39.46770 -75.55402 10146 ft 360 kts
2026-04-26 21:17 39.49088 -75.55174 10062 ft 314 kts
2026-04-26 21:17 39.51153 -75.54957 9944 ft 280 kts
2026-04-26 21:18 39.53009 -75.54755 9617 ft 265 kts
2026-04-26 21:18 39.54876 -75.54551 8921 ft 271 kts
2026-04-26 21:18 39.56727 -75.54441 8355 ft 262 kts 355°
2026-04-26 21:18 39.58485 -75.55070 7921 ft 262 kts 340°
2026-04-26 21:19 39.60167 -75.55965 7464 ft 261 kts 340°
2026-04-26 21:19 39.61837 -75.56865 7026 ft 259 kts 340°
2026-04-26 21:19 39.63496 -75.57748 6593 ft 257 kts 340°
2026-04-26 21:19 39.65145 -75.58619 6164 ft 255 kts 340°
2026-04-26 21:20 39.66778 -75.59478 5739 ft 252 kts 340°
2026-04-26 21:20 39.68445 -75.60066 5312 ft 247 kts
2026-04-26 21:20 39.70097 -75.59643 4927 ft 242 kts 23°
2026-04-26 21:20 39.71520 -75.58506 4527 ft 240 kts 36°
2026-04-26 21:21 39.72829 -75.57173 4121 ft 238 kts 38°
2026-04-26 21:21 39.74065 -75.55879 3997 ft 224 kts 38°
2026-04-26 21:21 39.75260 -75.54632 3898 ft 209 kts 38°
2026-04-26 21:21 39.76349 -75.53506 3792 ft 192 kts 38°
2026-04-26 21:22 39.77350 -75.52475 3690 ft 176 kts 38°
2026-04-26 21:22 39.78259 -75.51545 3609 ft 161 kts 38°
2026-04-26 21:22 39.79112 -75.50673 3548 ft 155 kts 37°
2026-04-26 21:23 39.80813 -75.48935 3305 ft 153 kts 38°
2026-04-26 21:23 39.81633 -75.48073 3126 ft 150 kts 45°
2026-04-26 21:23 39.82107 -75.46873 3016 ft 153 kts 67°
2026-04-26 21:23 39.82455 -75.45562 2799 ft 152 kts 69°
2026-04-26 21:24 39.82750 -75.44257 2607 ft 148 kts 72°
2026-04-26 21:24 39.83013 -75.42982 2419 ft 144 kts 73°
2026-04-26 21:24 39.83256 -75.41768 2232 ft 133 kts 73°
2026-04-26 21:24 39.83471 -75.40680 2066 ft 118 kts 74°
2026-04-26 21:25 39.83668 -75.39688 1908 ft 110 kts 74°
2026-04-26 21:25 39.83858 -75.38735 1770 ft 109 kts 75°
2026-04-26 21:25 39.84047 -75.37776 1623 ft 110 kts 75°
2026-04-26 21:25 39.84238 -75.36812 1467 ft 111 kts 75°
2026-04-26 21:26 39.84430 -75.35842 1334 ft 111 kts 76°
2026-04-26 21:26 39.84622 -75.34874 1183 ft 110 kts 76°
2026-04-26 21:26 39.84813 -75.33909 1039 ft 110 kts 76°
2026-04-26 21:26 39.85006 -75.32938 891 ft 111 kts 76°
2026-04-26 21:27 39.85198 -75.31971 741 ft 110 kts 76°
2026-04-26 21:27 39.85390 -75.31003 599 ft 110 kts 76°
2026-04-26 21:27 39.85582 -75.30034 434 ft 110 kts 76°
2026-04-26 21:27 39.85774 -75.29075 317 ft 109 kts 76°
2026-04-26 21:28 39.85963 -75.28116 160 ft 110 kts 76°
2026-04-26 21:28 39.86154 -75.27156 34 ft 107 kts 75°
2026-04-26 21:28 39.86312 -75.26365 27 ft 69 kts 75°
2026-04-26 21:28 39.86396 -75.25949 29 ft 23 kts 72°
2026-04-26 21:29 39.86465 -75.25768 25 ft 22 kts 52°
2026-04-26 21:29 39.86575 -75.25655 25 ft 20 kts 357°
2026-04-26 21:29 39.86710 -75.25696 26 ft 20 kts 345°
2026-04-26 21:29 39.86840 -75.25740 24 ft 19 kts 346°
2026-04-26 21:30 39.86965 -75.25782 26 ft 18 kts 345°
2026-04-26 21:30 39.87043 -75.25690 29 ft 18 kts 76°
2026-04-26 21:30 39.87072 -75.25537 27 ft 17 kts 82°
2026-04-26 21:30 39.87080 -75.25437 28 ft 17 kts 77°
2026-04-26 21:31 39.87119 -75.25246 24 ft 16 kts 76°
2026-04-26 21:31 39.87137 -75.25155 24 ft 15 kts 75°
2026-04-26 21:31 39.87163 -75.25023 26 ft 15 kts 75°
2026-04-26 21:31 39.87190 -75.24891 25 ft 17 kts 75°
2026-04-26 21:32 39.87232 -75.24679 26 ft 28 kts 76°
2026-04-26 21:32 39.87281 -75.24434 26 ft 27 kts 75°
2026-04-26 21:32 39.87327 -75.24204 24 ft 25 kts 75°
2026-04-26 21:32 39.87369 -75.23991 24 ft 23 kts 75°
2026-04-26 21:33 39.87412 -75.23796 27 ft 22 kts 76°
2026-04-26 21:33 39.87497 -75.23644 27 ft 20 kts 45°
2026-04-26 21:33 39.87616 -75.23557 28 ft 20 kts 19°
2026-04-26 21:33 39.87744 -75.23500 24 ft 19 kts 19°
2026-04-26 21:34 39.87858 -75.23533 24 ft 18 kts 299°
2026-04-26 21:34 39.87899 -75.23688 28 ft 18 kts 289°
2026-04-26 21:34 39.87917 -75.23779 28 ft 2 kts 243°
2026-04-26 21:34 39.87891 -75.23801 28 ft 10 kts 202°
2026-04-26 21:35 39.87863 -75.23813 24 ft 0 kts 197°
2026-04-26 21:39 39.69493 -75.59903 24 ft 235 kts 15°
2026-04-26 21:39 39.70962 -75.59022 4688 ft 241 kts 33°
2026-04-26 21:39 39.72297 -75.57725 4287 ft 239 kts 38°
2026-04-26 21:39 39.73576 -75.56391 4057 ft 229 kts 38°
2026-04-26 21:40 39.74785 -75.55127 3928 ft 217 kts 38°
2026-04-26 21:40 39.75914 -75.53954 3835 ft 198 kts 38°
2026-04-26 21:40 39.76950 -75.52886 3729 ft 182 kts 38°
2026-04-26 21:40 39.77903 -75.51909 3634 ft 167 kts 38°
2026-04-26 21:41 39.78777 -75.51016 3560 ft 154 kts 38°
2026-04-26 21:41 39.79622 -75.50153 3529 ft 156 kts 38°
2026-04-26 21:41 39.80466 -75.49290 3363 ft 155 kts 38°
2026-04-26 21:41 39.81304 -75.48433 3185 ft 152 kts 38°
2026-04-26 21:42 39.81967 -75.47388 3069 ft 151 kts 66°
2026-04-26 21:42 39.82324 -75.46082 2878 ft 154 kts 68°
2026-04-26 21:42 39.82638 -75.44774 2680 ft 150 kts 71°
2026-04-26 21:42 39.82910 -75.43486 2498 ft 145 kts 72°
2026-04-26 21:43 39.83163 -75.42240 2307 ft 138 kts 73°
2026-04-26 21:43 39.83389 -75.41099 2153 ft 120 kts 74°
2026-04-26 21:43 39.83591 -75.40078 1972 ft 112 kts 74°
2026-04-26 21:43 39.83782 -75.39115 1818 ft 108 kts 74°
2026-04-26 21:44 39.83968 -75.38174 1687 ft 110 kts 74°
2026-04-26 21:44 39.84158 -75.37213 1543 ft 110 kts 75°
2026-04-26 21:44 39.84352 -75.36232 1388 ft 111 kts 75°
2026-04-26 21:44 39.84545 -75.35262 1247 ft 111 kts 76°
2026-04-26 21:45 39.84736 -75.34297 1095 ft 110 kts 76°
2026-04-26 21:45 39.84928 -75.33330 951 ft 110 kts 76°
2026-04-26 21:45 39.85120 -75.32362 805 ft 110 kts 76°
2026-04-26 21:45 39.85309 -75.31406 658 ft 111 kts 76°
2026-04-26 21:46 39.85503 -75.30438 511 ft 111 kts 76°
2026-04-26 21:46 39.85693 -75.29472 377 ft 109 kts 76°
2026-04-26 21:46 39.85885 -75.28517 228 ft 109 kts 76°
2026-04-26 21:46 39.86073 -75.27553 70 ft 110 kts 76°
2026-04-26 21:47 39.86255 -75.26651 29 ft 88 kts 75°
2026-04-26 21:47 39.86370 -75.26074 26 ft 44 kts 75°
2026-04-26 21:47 39.86431 -75.25838 26 ft 22 kts 65°
2026-04-26 21:47 39.86520 -75.25681 26 ft 21 kts 45°
2026-04-26 21:48 39.86654 -75.25678 26 ft 20 kts 345°
2026-04-26 21:48 39.86786 -75.25722 28 ft 19 kts 346°
2026-04-26 21:48 39.86914 -75.25765 28 ft 19 kts 345°
2026-04-26 21:48 39.87029 -75.25755 28 ft 18 kts 64°
2026-04-26 21:49 39.87061 -75.25601 27 ft 17 kts 75°
2026-04-26 21:49 39.87078 -75.25448 24 ft 16 kts 78°
2026-04-26 21:49 39.87108 -75.25305 26 ft 16 kts 76°
2026-04-26 21:49 39.87135 -75.25166 26 ft 15 kts 75°
2026-04-26 21:50 39.87161 -75.25033 28 ft 15 kts 75°
2026-04-26 21:50 39.87179 -75.24948 26 ft 15 kts 75°
2026-04-26 21:50 39.87228 -75.24698 24 ft 28 kts 76°
2026-04-26 21:50 39.87277 -75.24453 28 ft 27 kts 75°
2026-04-26 21:51 39.87323 -75.24221 24 ft 25 kts 75°
2026-04-26 21:51 39.87366 -75.24008 26 ft 23 kts 75°
2026-04-26 21:51 39.87409 -75.23811 27 ft 22 kts 76°
2026-04-26 21:51 39.87489 -75.23655 27 ft 21 kts 45°
2026-04-26 21:52 39.87606 -75.23561 28 ft 19 kts 19°
2026-04-26 21:52 39.87734 -75.23505 26 ft 19 kts 19°
2026-04-26 21:52 39.87853 -75.23521 24 ft 18 kts 305°
2026-04-26 21:52 39.87896 -75.23675 29 ft 18 kts 289°
2026-04-26 21:53 39.87918 -75.23778 29 ft 1 kts 248°
2026-04-26 21:53 39.87896 -75.23798 26 ft 9 kts 206°
2026-04-26 21:53 39.87863 -75.23813 27 ft 0 kts 197°